Airfield :
LOGIN :

Register | Disclaimer

   EN    FR    IT 

 










Legend :    VFR   Marginal VFR   IFR   Intensive IFR   Very Intensive IFR
Visi :
Ceiling :
>= 8 km
>= 3000ft
5 to 8 km
1000 to 3000 ft
1500m to 5 km
500 to 1000 ft
800 to 1500m
200 to 500 ft
< 800m
< 200 ft
Symbols :   Thunderstorms  Fog  Heavy snow  Heavy precipitations  Wind > 20 kt
SIGMETs :     Misc.  Thunderstorms  Icing  Turbulence  Mountain Waves  Volcanic Ashes







- Airport Elevation : 1234 ft
- IATA code : LUX


ELLX - Luxembourg Findel

CURRENT METAR :
  • 221950Z 35007KT CAVOK 22/09 Q1016 NOSIG

EXPIRED METARs :
  • 221920Z 34006KT 270V010 CAVOK 23/09 Q1016 NOSIG
  • 221850Z 36007KT CAVOK 25/09 Q1016 NOSIG
  • 221820Z 01008KT 330V050 CAVOK 26/09 Q1016 NOSIG
  • 221750Z 33007KT 300V360 CAVOK 26/09 Q1015 NOSIG
  • 221720Z 33008KT 300V360 CAVOK 27/09 Q1015 NOSIG

TAF TAF ELLX
Valid from the 22 at 18:00 until the 24 at 00:00 UTC


221700Z 2218/2324 33008KT CAVOK
ATIS : +352 4798 27300
Met : +352 4798 27010 / 27050
No reported NOTAMs for that airfield.



MET'MAP, your aeronautical weather chart ! - Copyright ORBIFLY December 2007 - Disclaimer

ORBIFLY MET'MAP TEAM :

Programming & Development : Alexandra Zaïnal
Concept & Development : Baudouin d'Aumeries
Co-Development & Prog : Marc-Olivier Méhu
Technical & hardware support : Manuel Goepfert

Contact : metmap@orbifly.com




SOURCES & CREDITS :

   NOAA